Year,Month,Day,Hour,Minute,Value (Times are PST for temperature in C)
2015,10,16,00,00,9.80
2015,10,16,00,01,9.70
2015,10,16,00,02,9.70
2015,10,16,00,03,9.70
2015,10,16,00,04,9.60
2015,10,16,00,05,9.60
2015,10,16,00,06,9.60
2015,10,16,00,07,9.60
2015,10,16,00,08,9.60
2015,10,16,00,09,9.50
2015,10,16,00,10,9.50
2015,10,16,00,11,9.60
2015,10,16,00,12,9.60
2015,10,16,00,13,9.60
2015,10,16,00,14,9.60
2015,10,16,00,15,9.60
2015,10,16,00,16,9.60
2015,10,16,00,17,9.60
2015,10,16,00,18,9.60
2015,10,16,00,19,9.60
2015,10,16,00,20,9.60
2015,10,16,00,21,9.60
2015,10,16,00,22,9.60
2015,10,16,00,23,9.60
2015,10,16,00,24,9.60
2015,10,16,00,25,9.50
2015,10,16,00,26,9.50
2015,10,16,00,27,9.50
2015,10,16,00,28,9.40
2015,10,16,00,29,9.40
2015,10,16,00,30,9.40
2015,10,16,00,31,9.30
2015,10,16,00,32,9.30
2015,10,16,00,33,9.30
2015,10,16,00,34,9.30
2015,10,16,00,35,9.30
2015,10,16,00,36,9.30
2015,10,16,00,37,9.30
2015,10,16,00,38,9.30
2015,10,16,00,39,9.30
2015,10,16,00,40,9.30
2015,10,16,00,41,9.30
2015,10,16,00,42,9.30
2015,10,16,00,43,9.30
2015,10,16,00,44,9.30
2015,10,16,00,45,9.30
2015,10,16,00,46,9.30
2015,10,16,00,47,9.30
2015,10,16,00,48,9.30
2015,10,16,00,49,9.30
2015,10,16,00,50,9.30
2015,10,16,00,51,9.30
2015,10,16,00,52,9.30
2015,10,16,00,53,9.40
2015,10,16,00,54,9.40
2015,10,16,00,55,9.40
2015,10,16,00,56,9.40
2015,10,16,00,57,9.40
2015,10,16,00,58,9.40
2015,10,16,00,59,9.40
2015,10,16,01,00,9.40
2015,10,16,01,01,9.40
2015,10,16,01,02,9.40
2015,10,16,01,03,9.50
2015,10,16,01,04,9.40
2015,10,16,01,05,9.50
2015,10,16,01,06,9.50
2015,10,16,01,07,9.50
2015,10,16,01,08,9.50
2015,10,16,01,09,9.50
2015,10,16,01,10,9.50
2015,10,16,01,11,9.50
2015,10,16,01,12,9.50
2015,10,16,01,13,9.50
2015,10,16,01,14,9.50
2015,10,16,01,15,9.50
2015,10,16,01,16,9.50
2015,10,16,01,17,9.50
2015,10,16,01,18,9.50
2015,10,16,01,19,9.60
2015,10,16,01,20,9.60
2015,10,16,01,21,9.70
2015,10,16,01,22,9.70
2015,10,16,01,23,9.80
2015,10,16,01,24,9.80
2015,10,16,01,25,9.80
2015,10,16,01,26,9.90
2015,10,16,01,27,10.00
2015,10,16,01,28,10.00
2015,10,16,01,29,10.10
2015,10,16,01,30,10.20
2015,10,16,01,31,10.30
2015,10,16,01,32,10.30
2015,10,16,01,33,10.50
2015,10,16,01,34,10.60
2015,10,16,01,35,10.70
2015,10,16,01,36,10.80
2015,10,16,01,37,10.80
2015,10,16,01,38,11.00
2015,10,16,01,39,11.20
2015,10,16,01,40,11.40
2015,10,16,01,41,11.60
2015,10,16,01,42,11.70
2015,10,16,01,43,11.80
2015,10,16,01,44,12.00
2015,10,16,01,45,12.10
2015,10,16,01,46,12.20
2015,10,16,01,47,12.30
2015,10,16,01,48,12.40
2015,10,16,01,49,12.50
2015,10,16,01,50,12.50
2015,10,16,01,51,12.60
2015,10,16,01,52,12.60
2015,10,16,01,53,12.60
2015,10,16,01,54,12.60
2015,10,16,01,55,12.60
2015,10,16,01,56,12.60
2015,10,16,01,57,12.60
2015,10,16,01,58,12.50
2015,10,16,01,59,12.50
2015,10,16,02,00,12.50
2015,10,16,02,01,12.50
2015,10,16,02,02,12.60
2015,10,16,02,03,12.60
2015,10,16,02,04,12.60
2015,10,16,02,05,12.70
2015,10,16,02,06,12.80
2015,10,16,02,07,12.90
2015,10,16,02,08,12.90
2015,10,16,02,09,13.00
2015,10,16,02,10,13.10
2015,10,16,02,11,13.10
2015,10,16,02,12,13.20
2015,10,16,02,13,13.20
2015,10,16,02,14,13.30
2015,10,16,02,15,13.30
2015,10,16,02,16,13.30
2015,10,16,02,17,13.40
2015,10,16,02,18,13.40
2015,10,16,02,19,13.40
2015,10,16,02,20,13.50
2015,10,16,02,21,13.50
2015,10,16,02,22,13.50
2015,10,16,02,23,13.60
2015,10,16,02,24,13.60
2015,10,16,02,25,13.60
2015,10,16,02,26,13.60
2015,10,16,02,27,13.60
2015,10,16,02,28,13.70
2015,10,16,02,29,13.70
2015,10,16,02,30,13.60
2015,10,16,02,31,13.60
2015,10,16,02,32,13.60
2015,10,16,02,33,13.50
2015,10,16,02,34,13.50
2015,10,16,02,35,13.40
2015,10,16,02,36,13.30
2015,10,16,02,37,13.30
2015,10,16,02,38,13.20
2015,10,16,02,39,13.20
2015,10,16,02,40,13.20
2015,10,16,02,41,13.20
2015,10,16,02,42,13.20
2015,10,16,02,43,13.20
2015,10,16,02,44,13.20
2015,10,16,02,45,13.20
2015,10,16,02,46,13.30
2015,10,16,02,47,13.30
2015,10,16,02,48,13.30
2015,10,16,02,49,13.40
2015,10,16,02,50,13.40
2015,10,16,02,51,13.50
2015,10,16,02,52,13.60
2015,10,16,02,53,13.60
2015,10,16,02,54,13.60
2015,10,16,02,55,13.70
2015,10,16,02,56,13.70
2015,10,16,02,57,13.80
2015,10,16,02,58,13.80
2015,10,16,02,59,13.90
2015,10,16,03,00,13.90
2015,10,16,03,01,13.90
2015,10,16,03,02,13.90
2015,10,16,03,03,13.90
2015,10,16,03,04,13.90
2015,10,16,03,05,13.90
2015,10,16,03,06,13.90
2015,10,16,03,07,13.90
2015,10,16,03,08,13.90
2015,10,16,03,09,13.80
2015,10,16,03,10,13.80
2015,10,16,03,11,13.80
2015,10,16,03,12,13.80
2015,10,16,03,13,13.80
2015,10,16,03,14,13.80
2015,10,16,03,15,13.80
2015,10,16,03,16,13.80
2015,10,16,03,17,13.70
2015,10,16,03,18,13.70
2015,10,16,03,19,13.60
2015,10,16,03,20,13.50
2015,10,16,03,21,13.50
2015,10,16,03,22,13.40
2015,10,16,03,23,13.30
2015,10,16,03,24,13.30
2015,10,16,03,25,13.20
2015,10,16,03,26,13.10
2015,10,16,03,27,13.10
2015,10,16,03,28,13.00
2015,10,16,03,29,13.00
2015,10,16,03,30,13.00
2015,10,16,03,31,13.00
2015,10,16,03,32,13.00
2015,10,16,03,33,13.00
2015,10,16,03,34,13.10
2015,10,16,03,35,13.10
2015,10,16,03,36,13.10
2015,10,16,03,37,13.10
2015,10,16,03,38,13.10
2015,10,16,03,39,13.10
2015,10,16,03,40,13.10
2015,10,16,03,41,13.10
2015,10,16,03,42,13.10
2015,10,16,03,43,13.10
2015,10,16,03,44,13.10
2015,10,16,03,45,13.00
2015,10,16,03,46,13.00
2015,10,16,03,47,12.90
2015,10,16,03,48,12.90
2015,10,16,03,49,12.80
2015,10,16,03,50,12.80
2015,10,16,03,51,12.70
2015,10,16,03,52,12.70
2015,10,16,03,53,12.70
2015,10,16,03,54,12.70
2015,10,16,03,55,12.70
2015,10,16,03,56,12.70
2015,10,16,03,57,12.70
2015,10,16,03,58,12.70
2015,10,16,03,59,12.70
2015,10,16,04,00,12.70
2015,10,16,04,01,12.70
2015,10,16,04,02,12.70
2015,10,16,04,03,12.80
2015,10,16,04,04,12.80
2015,10,16,04,05,12.80
2015,10,16,04,06,12.80
2015,10,16,04,07,12.80
2015,10,16,04,08,12.90
2015,10,16,04,09,13.00
2015,10,16,04,10,13.10
2015,10,16,04,11,13.20
2015,10,16,04,12,13.30
2015,10,16,04,13,13.30
2015,10,16,04,14,13.30
2015,10,16,04,15,13.40
2015,10,16,04,16,13.40
2015,10,16,04,17,13.40
2015,10,16,04,18,13.40
2015,10,16,04,19,13.40
2015,10,16,04,20,13.40
2015,10,16,04,21,13.40
2015,10,16,04,22,13.40
2015,10,16,04,23,13.40
2015,10,16,04,24,13.40
2015,10,16,04,25,13.40
2015,10,16,04,26,13.40
2015,10,16,04,27,13.40
2015,10,16,04,28,13.30
2015,10,16,04,29,13.20
2015,10,16,04,30,13.20
2015,10,16,04,31,13.10
2015,10,16,04,32,13.10
2015,10,16,04,33,13.00
2015,10,16,04,34,13.00
2015,10,16,04,35,13.00
2015,10,16,04,36,13.00
2015,10,16,04,37,13.10
2015,10,16,04,38,13.20
2015,10,16,04,39,13.20
2015,10,16,04,40,13.30
2015,10,16,04,41,13.40
2015,10,16,04,42,13.50
2015,10,16,04,43,13.50
2015,10,16,04,44,13.60
2015,10,16,04,45,13.60
2015,10,16,04,46,13.70
2015,10,16,04,47,13.70
2015,10,16,04,48,13.70
2015,10,16,04,49,13.70
2015,10,16,04,50,13.80
2015,10,16,04,51,13.80
2015,10,16,04,52,13.80
2015,10,16,04,53,13.80
2015,10,16,04,54,13.80
2015,10,16,04,55,13.90
2015,10,16,04,56,13.90
2015,10,16,04,57,13.90
2015,10,16,04,58,13.90
2015,10,16,04,59,13.80
2015,10,16,05,00,13.80
2015,10,16,05,01,13.70
2015,10,16,05,02,13.70
2015,10,16,05,03,13.60
2015,10,16,05,04,13.50
2015,10,16,05,05,13.40
2015,10,16,05,06,13.40
2015,10,16,05,07,13.30
2015,10,16,05,08,13.30
2015,10,16,05,09,13.30
2015,10,16,05,10,13.30
2015,10,16,05,11,13.30
2015,10,16,05,12,13.30
2015,10,16,05,13,13.30
2015,10,16,05,14,13.30
2015,10,16,05,15,13.30
2015,10,16,05,16,13.20
2015,10,16,05,17,13.20
2015,10,16,05,18,13.20
2015,10,16,05,19,13.10
2015,10,16,05,20,13.10
2015,10,16,05,21,13.00
2015,10,16,05,22,13.00
2015,10,16,05,23,12.90
2015,10,16,05,24,12.90
2015,10,16,05,25,13.00
2015,10,16,05,26,13.00
2015,10,16,05,27,13.10
2015,10,16,05,28,13.10
2015,10,16,05,29,13.20
2015,10,16,05,30,13.20
2015,10,16,05,31,13.30
2015,10,16,05,32,13.30
2015,10,16,05,33,13.40
2015,10,16,05,34,13.40
2015,10,16,05,35,13.40
2015,10,16,05,36,13.40
2015,10,16,05,37,13.40
2015,10,16,05,38,13.40
2015,10,16,05,39,13.40
2015,10,16,05,40,13.50
2015,10,16,05,41,13.50
2015,10,16,05,42,13.50
2015,10,16,05,43,13.50
2015,10,16,05,44,13.60
2015,10,16,05,45,13.60
2015,10,16,05,46,13.60
2015,10,16,05,47,13.60
2015,10,16,05,48,13.60
2015,10,16,05,49,13.70
2015,10,16,05,50,13.70
2015,10,16,05,51,13.70
2015,10,16,05,52,13.70
2015,10,16,05,53,13.70
2015,10,16,05,54,13.70
2015,10,16,05,55,13.70
2015,10,16,05,56,13.70
2015,10,16,05,57,13.70
2015,10,16,05,58,13.70
2015,10,16,05,59,13.70
2015,10,16,06,00,13.70
2015,10,16,06,01,13.70
2015,10,16,06,02,13.70
2015,10,16,06,03,13.70
2015,10,16,06,04,13.70
2015,10,16,06,05,13.70
2015,10,16,06,06,13.70
2015,10,16,06,07,13.70
2015,10,16,06,08,13.70
2015,10,16,06,09,13.70
2015,10,16,06,10,13.70
2015,10,16,06,11,13.70
2015,10,16,06,12,13.70
2015,10,16,06,13,13.70
2015,10,16,06,14,13.70
2015,10,16,06,15,13.70
2015,10,16,06,16,13.70
2015,10,16,06,17,13.70
2015,10,16,06,18,13.70
2015,10,16,06,19,13.70
2015,10,16,06,20,13.70
2015,10,16,06,21,13.70
2015,10,16,06,22,13.70
2015,10,16,06,23,13.70
2015,10,16,06,24,13.70
2015,10,16,06,25,13.80
2015,10,16,06,26,13.80
2015,10,16,06,27,13.80
2015,10,16,06,28,13.80
2015,10,16,06,29,13.80
2015,10,16,06,30,13.80
2015,10,16,06,31,13.80
2015,10,16,06,32,13.70
2015,10,16,06,33,13.70
2015,10,16,06,34,13.60
2015,10,16,06,35,13.60
2015,10,16,06,36,13.50
2015,10,16,06,37,13.50
2015,10,16,06,38,13.40
2015,10,16,06,39,13.30
2015,10,16,06,40,13.30
2015,10,16,06,41,13.20
2015,10,16,06,42,13.00
2015,10,16,06,43,12.80
2015,10,16,06,44,12.70
2015,10,16,06,45,12.50
2015,10,16,06,46,12.40
2015,10,16,06,47,12.30
2015,10,16,06,48,12.20
2015,10,16,06,49,12.20
2015,10,16,06,50,12.10
2015,10,16,06,51,12.10
2015,10,16,06,52,12.10
2015,10,16,06,53,12.00
2015,10,16,06,54,12.00
2015,10,16,06,55,12.00
2015,10,16,06,56,12.10
2015,10,16,06,57,12.10
2015,10,16,06,58,12.10
2015,10,16,06,59,12.20
2015,10,16,07,00,12.20
2015,10,16,07,01,12.20
2015,10,16,07,02,12.20
2015,10,16,07,03,12.20
2015,10,16,07,04,12.20
2015,10,16,07,05,12.20
2015,10,16,07,06,12.20
2015,10,16,07,07,12.20
2015,10,16,07,08,12.20
2015,10,16,07,09,12.20
2015,10,16,07,10,12.20
2015,10,16,07,11,12.20
2015,10,16,07,12,12.10
2015,10,16,07,13,12.10
2015,10,16,07,14,12.00
2015,10,16,07,15,11.90
2015,10,16,07,16,11.90
2015,10,16,07,17,11.80
2015,10,16,07,18,11.70
2015,10,16,07,19,11.60
2015,10,16,07,20,11.50
2015,10,16,07,21,11.40
2015,10,16,07,22,11.30
2015,10,16,07,23,11.20
2015,10,16,07,24,11.10
2015,10,16,07,25,11.10
2015,10,16,07,26,11.00
2015,10,16,07,27,11.00
2015,10,16,07,28,10.90
2015,10,16,07,29,10.90
2015,10,16,07,30,10.90
2015,10,16,07,31,10.80
2015,10,16,07,32,10.80
2015,10,16,07,33,10.80
2015,10,16,07,34,10.80
2015,10,16,07,35,10.80
2015,10,16,07,36,10.80
2015,10,16,07,37,10.80
2015,10,16,07,38,10.90
2015,10,16,07,39,10.90
2015,10,16,07,40,11.10
2015,10,16,07,41,11.20
2015,10,16,07,42,11.40
2015,10,16,07,43,11.50
2015,10,16,07,44,11.70
2015,10,16,07,45,11.80
2015,10,16,07,46,12.00
2015,10,16,07,47,12.20
2015,10,16,07,48,12.30
2015,10,16,07,49,12.50
2015,10,16,07,50,12.60
2015,10,16,07,51,12.80
2015,10,16,07,52,12.90
2015,10,16,07,53,12.90
2015,10,16,07,54,13.00
2015,10,16,07,55,13.00
2015,10,16,07,56,13.10
2015,10,16,07,57,13.10
2015,10,16,07,58,13.10
2015,10,16,07,59,13.20
2015,10,16,08,00,13.20
2015,10,16,08,01,13.20
2015,10,16,08,02,13.20
2015,10,16,08,03,13.20
2015,10,16,08,04,13.30
2015,10,16,08,05,13.30
2015,10,16,08,06,13.30
2015,10,16,08,07,13.30
2015,10,16,08,08,13.30
2015,10,16,08,09,13.30
2015,10,16,08,10,13.30
2015,10,16,08,11,13.30
2015,10,16,08,12,13.30
2015,10,16,08,13,13.30
2015,10,16,08,14,13.30
2015,10,16,08,15,13.30
2015,10,16,08,16,13.30
2015,10,16,08,17,13.30
2015,10,16,08,18,13.40
2015,10,16,08,19,13.40
2015,10,16,08,20,13.40
2015,10,16,08,21,13.40
2015,10,16,08,22,13.40
2015,10,16,08,23,13.40
2015,10,16,08,24,13.40
2015,10,16,08,25,13.40
2015,10,16,08,26,13.40
2015,10,16,08,27,13.40
2015,10,16,08,28,13.40
2015,10,16,08,29,13.40
2015,10,16,08,30,13.50
2015,10,16,08,31,13.50
2015,10,16,08,32,13.50
2015,10,16,08,33,13.50
2015,10,16,08,34,13.50
2015,10,16,08,35,13.40
2015,10,16,08,36,13.40
2015,10,16,08,37,13.40
2015,10,16,08,38,13.40
2015,10,16,08,39,13.30
2015,10,16,08,40,13.30
2015,10,16,08,41,13.30
2015,10,16,08,42,13.20
2015,10,16,08,43,13.20
2015,10,16,08,44,13.20
2015,10,16,08,45,13.10
2015,10,16,08,46,13.10
2015,10,16,08,47,13.10
2015,10,16,08,48,13.10
2015,10,16,08,49,13.10
2015,10,16,08,50,13.10
2015,10,16,08,51,13.20
2015,10,16,08,52,13.20
2015,10,16,08,53,13.20
2015,10,16,08,54,13.20
2015,10,16,08,55,13.30
2015,10,16,08,56,13.30
2015,10,16,08,57,13.30
2015,10,16,08,58,13.40
2015,10,16,08,59,13.40
2015,10,16,09,00,13.50
2015,10,16,09,01,13.60
2015,10,16,09,02,13.60
2015,10,16,09,03,13.70
2015,10,16,09,04,13.70
2015,10,16,09,05,13.80
2015,10,16,09,06,13.80
2015,10,16,09,07,13.90
2015,10,16,09,08,13.90
2015,10,16,09,09,14.00
2015,10,16,09,10,14.00
2015,10,16,09,11,14.10
2015,10,16,09,12,14.10
2015,10,16,09,13,14.10
2015,10,16,09,14,14.20
2015,10,16,09,15,14.20
2015,10,16,09,16,14.20
2015,10,16,09,17,14.20
2015,10,16,09,18,14.20
2015,10,16,09,19,14.20
2015,10,16,09,20,14.30
2015,10,16,09,21,14.30
2015,10,16,09,22,14.30
2015,10,16,09,23,14.30
2015,10,16,09,24,14.30
2015,10,16,09,25,14.30
2015,10,16,09,26,14.40
2015,10,16,09,27,14.40
2015,10,16,09,28,14.50
2015,10,16,09,29,14.50
2015,10,16,09,30,14.50
2015,10,16,09,31,14.60
2015,10,16,09,32,14.60
2015,10,16,09,33,14.70
2015,10,16,09,34,14.70
2015,10,16,09,35,14.70
2015,10,16,09,36,14.70
2015,10,16,09,37,14.80
2015,10,16,09,38,14.80
2015,10,16,09,39,14.80
2015,10,16,09,40,14.80
2015,10,16,09,41,14.80
2015,10,16,09,42,14.80
2015,10,16,09,43,14.90
2015,10,16,09,44,14.90
2015,10,16,09,45,14.90
2015,10,16,09,46,14.90
2015,10,16,09,47,14.90
2015,10,16,09,48,15.00
2015,10,16,09,49,15.00
2015,10,16,09,50,15.00
2015,10,16,09,51,15.00
2015,10,16,09,52,15.10
2015,10,16,09,53,15.10
2015,10,16,09,54,15.10
2015,10,16,09,55,15.10
2015,10,16,09,56,15.10
2015,10,16,09,57,15.20
2015,10,16,09,58,15.20
2015,10,16,09,59,15.20
2015,10,16,10,00,15.20
2015,10,16,10,01,15.20
2015,10,16,10,02,15.20
2015,10,16,10,03,15.20
2015,10,16,10,04,15.30
2015,10,16,10,05,15.30
2015,10,16,10,06,15.30
2015,10,16,10,07,15.30
2015,10,16,10,08,15.30
2015,10,16,10,09,15.30
2015,10,16,10,10,15.30
2015,10,16,10,11,15.40
2015,10,16,10,12,15.40
2015,10,16,10,13,15.30
2015,10,16,10,14,15.30
2015,10,16,10,15,15.40
2015,10,16,10,16,15.40
2015,10,16,10,17,15.40
2015,10,16,10,18,15.40
2015,10,16,10,19,15.40
2015,10,16,10,20,15.40
2015,10,16,10,21,15.50
2015,10,16,10,22,15.60
2015,10,16,10,23,15.60
2015,10,16,10,24,15.70
2015,10,16,10,25,15.70
2015,10,16,10,26,15.80
2015,10,16,10,27,15.80
2015,10,16,10,28,15.80
2015,10,16,10,29,15.90
2015,10,16,10,30,15.90
2015,10,16,10,31,15.90
2015,10,16,10,32,15.90
2015,10,16,10,33,16.00
2015,10,16,10,34,16.00
2015,10,16,10,35,16.00
2015,10,16,10,36,16.00
2015,10,16,10,37,16.00
2015,10,16,10,38,16.00
2015,10,16,10,39,16.00
2015,10,16,10,40,16.00
2015,10,16,10,41,16.10
2015,10,16,10,42,16.10
2015,10,16,10,43,16.10
2015,10,16,10,44,16.10
2015,10,16,10,45,16.20
2015,10,16,10,46,16.20
2015,10,16,10,47,16.20
2015,10,16,10,48,16.20
2015,10,16,10,49,16.30
2015,10,16,10,50,16.30
2015,10,16,10,51,16.30
2015,10,16,10,52,16.30
2015,10,16,10,53,16.30
2015,10,16,10,54,16.30
2015,10,16,10,55,16.30
2015,10,16,10,56,16.40
2015,10,16,10,57,16.40
2015,10,16,10,58,16.40
2015,10,16,10,59,16.30
2015,10,16,11,00,16.30
2015,10,16,11,01,16.20
2015,10,16,11,02,16.20
2015,10,16,11,03,16.10
2015,10,16,11,04,16.10
2015,10,16,11,05,16.00
2015,10,16,11,06,16.00
2015,10,16,11,07,15.90
2015,10,16,11,08,15.90
2015,10,16,11,09,15.80
2015,10,16,11,10,15.80
2015,10,16,11,11,15.80
2015,10,16,11,12,15.80
2015,10,16,11,13,15.90
2015,10,16,11,14,15.90
2015,10,16,11,15,15.90
2015,10,16,11,16,16.00
2015,10,16,11,17,16.00
2015,10,16,11,18,16.10
2015,10,16,11,19,16.20
2015,10,16,11,20,16.20
2015,10,16,11,21,16.20
2015,10,16,11,22,16.30
2015,10,16,11,23,16.40
2015,10,16,11,24,16.50
2015,10,16,11,25,16.50
2015,10,16,11,26,16.60
2015,10,16,11,27,16.60
2015,10,16,11,28,16.60
2015,10,16,11,29,16.60
2015,10,16,11,30,16.60
2015,10,16,11,31,16.70
2015,10,16,11,32,16.70
2015,10,16,11,33,16.80
2015,10,16,11,34,16.80
2015,10,16,11,35,16.90
2015,10,16,11,36,16.90
2015,10,16,11,37,16.90
2015,10,16,11,38,16.90
2015,10,16,11,39,16.90
2015,10,16,11,40,17.00
2015,10,16,11,41,16.90
2015,10,16,11,42,16.90
2015,10,16,11,43,16.90
2015,10,16,11,44,16.80
2015,10,16,11,45,16.80
2015,10,16,11,46,16.80
2015,10,16,11,47,16.80
2015,10,16,11,48,16.80
2015,10,16,11,49,16.80
2015,10,16,11,50,16.80
2015,10,16,11,51,16.80
2015,10,16,11,52,16.80
2015,10,16,11,53,16.80
2015,10,16,11,54,16.90
2015,10,16,11,55,16.90
2015,10,16,11,56,16.90
2015,10,16,11,57,17.00
2015,10,16,11,58,17.00
2015,10,16,11,59,17.00
2015,10,16,12,00,17.00
2015,10,16,12,01,17.10
2015,10,16,12,02,17.10
2015,10,16,12,03,17.20
2015,10,16,12,04,17.20
2015,10,16,12,05,17.20
2015,10,16,12,06,17.30
2015,10,16,12,07,17.30
2015,10,16,12,08,17.30
2015,10,16,12,09,17.40
2015,10,16,12,10,17.40
2015,10,16,12,11,17.40
2015,10,16,12,12,17.50
2015,10,16,12,13,17.50
2015,10,16,12,14,17.50
2015,10,16,12,15,17.50
2015,10,16,12,16,17.40
2015,10,16,12,17,17.40
2015,10,16,12,18,17.40
2015,10,16,12,19,17.40
2015,10,16,12,20,17.40
2015,10,16,12,21,17.30
2015,10,16,12,22,17.30
2015,10,16,12,23,17.20
2015,10,16,12,24,17.20
2015,10,16,12,25,17.10
2015,10,16,12,26,17.10
2015,10,16,12,27,17.10
2015,10,16,12,28,17.10
2015,10,16,12,29,17.10
2015,10,16,12,30,17.10
2015,10,16,12,31,17.10
2015,10,16,12,32,17.10
2015,10,16,12,33,17.20
2015,10,16,12,34,17.20
2015,10,16,12,35,17.30
2015,10,16,12,36,17.30
2015,10,16,12,37,17.30
2015,10,16,12,38,17.30
2015,10,16,12,39,17.30
2015,10,16,12,40,17.30
2015,10,16,12,41,17.30
2015,10,16,12,42,17.40
2015,10,16,12,43,17.40
2015,10,16,12,44,17.50
2015,10,16,12,45,17.50
2015,10,16,12,46,17.40
2015,10,16,12,47,17.40
2015,10,16,12,48,17.40
2015,10,16,12,49,17.40
2015,10,16,12,50,17.50
2015,10,16,12,51,17.50
2015,10,16,12,52,17.40
2015,10,16,12,53,17.40
2015,10,16,12,54,17.40
2015,10,16,12,55,17.50
2015,10,16,12,56,17.50
2015,10,16,12,57,17.50
2015,10,16,12,58,17.60
2015,10,16,12,59,17.60
2015,10,16,13,00,17.70
2015,10,16,13,01,17.70
2015,10,16,13,02,17.80
2015,10,16,13,03,17.80
2015,10,16,13,04,17.80
2015,10,16,13,05,17.90
2015,10,16,13,06,17.90
2015,10,16,13,07,17.90
2015,10,16,13,08,17.90
2015,10,16,13,09,17.90
2015,10,16,13,10,17.80
2015,10,16,13,11,17.90
2015,10,16,13,12,17.90
2015,10,16,13,13,17.90
2015,10,16,13,14,18.00
2015,10,16,13,15,18.00
2015,10,16,13,16,18.00
2015,10,16,13,17,17.90
2015,10,16,13,18,17.90
2015,10,16,13,19,17.90
2015,10,16,13,20,17.90
2015,10,16,13,21,17.90
2015,10,16,13,22,18.00
2015,10,16,13,23,18.00
2015,10,16,13,24,18.00
2015,10,16,13,25,18.00
2015,10,16,13,26,18.10
2015,10,16,13,27,18.10
2015,10,16,13,28,18.20
2015,10,16,13,29,18.20
2015,10,16,13,30,18.10
2015,10,16,13,31,18.10
2015,10,16,13,32,18.10
2015,10,16,13,33,18.10
2015,10,16,13,34,18.10
2015,10,16,13,35,18.20
2015,10,16,13,36,18.20
2015,10,16,13,37,18.30
2015,10,16,13,38,18.30
2015,10,16,13,39,18.20
2015,10,16,13,40,18.20
2015,10,16,13,41,18.20
2015,10,16,13,42,18.10
2015,10,16,13,43,18.10
2015,10,16,13,44,18.10
2015,10,16,13,45,18.10
2015,10,16,13,46,18.10
2015,10,16,13,47,18.10
2015,10,16,13,48,18.20
2015,10,16,13,49,18.20
2015,10,16,13,50,18.30
2015,10,16,13,51,18.30
2015,10,16,13,52,18.40
2015,10,16,13,53,18.50
2015,10,16,13,54,18.60
2015,10,16,13,55,18.60
2015,10,16,13,56,18.60
2015,10,16,13,57,18.60
2015,10,16,13,58,18.60
2015,10,16,13,59,18.60
2015,10,16,14,00,18.60
2015,10,16,14,01,18.60
2015,10,16,14,02,18.60
2015,10,16,14,03,18.60
2015,10,16,14,04,18.60
2015,10,16,14,05,18.60
2015,10,16,14,06,18.50
2015,10,16,14,07,18.50
2015,10,16,14,08,18.40
2015,10,16,14,09,18.40
2015,10,16,14,10,18.50
2015,10,16,14,11,18.60
2015,10,16,14,12,18.60
2015,10,16,14,13,18.70
2015,10,16,14,14,18.70
2015,10,16,14,15,18.70
2015,10,16,14,16,18.80
2015,10,16,14,17,18.80
2015,10,16,14,18,18.90
2015,10,16,14,19,19.00
2015,10,16,14,20,19.00
2015,10,16,14,21,19.00
2015,10,16,14,22,19.10
2015,10,16,14,23,19.10
2015,10,16,14,24,19.10
2015,10,16,14,25,19.10
2015,10,16,14,26,19.20
2015,10,16,14,27,19.20
2015,10,16,14,28,19.20
2015,10,16,14,29,19.20
2015,10,16,14,30,19.10
2015,10,16,14,31,19.10
2015,10,16,14,32,19.00
2015,10,16,14,33,19.00
2015,10,16,14,34,19.00
2015,10,16,14,35,19.00
2015,10,16,14,36,19.10
2015,10,16,14,37,19.10
2015,10,16,14,38,19.20
2015,10,16,14,39,19.20
2015,10,16,14,40,19.30
2015,10,16,14,41,19.30
2015,10,16,14,42,19.30
2015,10,16,14,43,19.30
2015,10,16,14,44,19.40
2015,10,16,14,45,19.40
2015,10,16,14,46,19.40
2015,10,16,14,47,19.30
2015,10,16,14,48,19.30
2015,10,16,14,49,19.30
2015,10,16,14,50,19.30
2015,10,16,14,51,19.30
2015,10,16,14,52,19.30
2015,10,16,14,53,19.40
2015,10,16,14,54,19.40
2015,10,16,14,55,19.40
2015,10,16,14,56,19.50
2015,10,16,14,57,19.50
2015,10,16,14,58,19.50
2015,10,16,14,59,19.60
2015,10,16,15,00,19.60
2015,10,16,15,01,19.60
2015,10,16,15,02,19.60
2015,10,16,15,03,19.60
2015,10,16,15,04,19.60
2015,10,16,15,05,19.60
2015,10,16,15,06,19.60
2015,10,16,15,07,19.60
2015,10,16,15,08,19.60
2015,10,16,15,09,19.60
2015,10,16,15,10,19.60
2015,10,16,15,11,19.60
2015,10,16,15,12,19.60
2015,10,16,15,13,19.70
2015,10,16,15,14,19.70
2015,10,16,15,15,19.70
2015,10,16,15,16,19.70
2015,10,16,15,17,19.70
2015,10,16,15,18,19.70
2015,10,16,15,19,19.70
2015,10,16,15,20,19.80
2015,10,16,15,21,19.80
2015,10,16,15,22,19.90
2015,10,16,15,23,19.90
2015,10,16,15,24,19.90
2015,10,16,15,25,19.90
2015,10,16,15,26,19.90
2015,10,16,15,27,19.90
2015,10,16,15,28,19.80
2015,10,16,15,29,19.80
2015,10,16,15,30,19.80
2015,10,16,15,31,19.70
2015,10,16,15,32,19.70
2015,10,16,15,33,19.70
2015,10,16,15,34,19.70
2015,10,16,15,35,19.60
2015,10,16,15,36,19.60
2015,10,16,15,37,19.50
2015,10,16,15,38,19.50
2015,10,16,15,39,19.50
2015,10,16,15,40,19.40
2015,10,16,15,41,19.40
2015,10,16,15,42,19.40
2015,10,16,15,43,19.40
2015,10,16,15,44,19.40
2015,10,16,15,45,19.40
2015,10,16,15,46,19.30
2015,10,16,15,47,19.30
2015,10,16,15,48,19.20
2015,10,16,15,49,19.30
2015,10,16,15,50,19.30
2015,10,16,15,51,19.30
2015,10,16,15,52,19.30
2015,10,16,15,53,19.30
2015,10,16,15,54,19.30
2015,10,16,15,55,19.30
2015,10,16,15,56,19.30
2015,10,16,15,57,19.20
2015,10,16,15,58,19.20
2015,10,16,15,59,19.20
2015,10,16,16,00,19.20
2015,10,16,16,01,19.20
2015,10,16,16,02,19.20
2015,10,16,16,03,19.10
2015,10,16,16,04,19.10
2015,10,16,16,05,19.10
2015,10,16,16,06,19.10
2015,10,16,16,07,19.20
2015,10,16,16,08,19.20
2015,10,16,16,09,19.20
2015,10,16,16,10,19.20
2015,10,16,16,11,19.20
2015,10,16,16,12,19.30
2015,10,16,16,13,19.30
2015,10,16,16,14,19.40
2015,10,16,16,15,19.40
2015,10,16,16,16,19.40
2015,10,16,16,17,19.50
2015,10,16,16,18,19.60
2015,10,16,16,19,19.60
2015,10,16,16,20,19.60
2015,10,16,16,21,19.70
2015,10,16,16,22,19.70
2015,10,16,16,23,19.80
2015,10,16,16,24,19.80
2015,10,16,16,25,19.80
2015,10,16,16,26,19.80
2015,10,16,16,27,19.80
2015,10,16,16,28,19.80
2015,10,16,16,29,19.80
2015,10,16,16,30,19.90
2015,10,16,16,31,19.90
2015,10,16,16,32,19.90
2015,10,16,16,33,19.90
2015,10,16,16,34,19.90
2015,10,16,16,35,19.90
2015,10,16,16,36,19.90
2015,10,16,16,37,19.90
2015,10,16,16,38,19.90
2015,10,16,16,39,19.90
2015,10,16,16,40,19.90
2015,10,16,16,41,19.90
2015,10,16,16,42,19.90
2015,10,16,16,43,19.90
2015,10,16,16,44,19.90
2015,10,16,16,45,19.80
2015,10,16,16,46,19.80
2015,10,16,16,47,19.90
2015,10,16,16,48,19.90
2015,10,16,16,49,19.90
2015,10,16,16,50,19.90
2015,10,16,16,51,19.90
2015,10,16,16,52,19.90
2015,10,16,16,53,19.90
2015,10,16,16,54,19.90
2015,10,16,16,55,19.90
2015,10,16,16,56,19.90
2015,10,16,16,57,19.90
2015,10,16,16,58,19.90
2015,10,16,16,59,19.90
2015,10,16,17,00,19.80
2015,10,16,17,01,19.80
2015,10,16,17,02,19.80
2015,10,16,17,03,19.80
2015,10,16,17,04,19.80
2015,10,16,17,05,19.90
2015,10,16,17,06,20.00
2015,10,16,17,07,20.00
2015,10,16,17,08,20.10
2015,10,16,17,09,20.10
2015,10,16,17,10,20.10
2015,10,16,17,11,20.10
2015,10,16,17,12,20.10
2015,10,16,17,13,20.00
2015,10,16,17,14,19.90
2015,10,16,17,15,19.90
2015,10,16,17,16,19.70
2015,10,16,17,17,19.40
2015,10,16,17,18,19.10
2015,10,16,17,19,18.80
2015,10,16,17,20,18.50
2015,10,16,17,21,18.20
2015,10,16,17,22,17.90
2015,10,16,17,23,17.70